FENGYUN 1C DEB, 29736

Orbit data source: Space-Track

FENGYUN 1C DEB, 29736 is space debris in SSO originally from a launch on Mon, 10 May 1999 UTC launched from the Taiyaun Space Center, China (TSC). Fengyun 1C debris stems from the Chinese weather satellite Fengyun-1C, which was intentionally destroyed by a Chinese anti-satellite missile in 2007. This event dramatically increased the amount of space debris, with thousands of trackable fragments posing hazards to satellites and human spaceflight. The Fengyun 1C debris cloud has become a focal point in discussions about space sustainability and the need for international regulations to prevent the creation of new debris.

Loading next visibility...
FENGYUN 1C DEB details
Identifier
29736, 1999-025AA
Orbit
SSO
Last TLE update1 day ago
Origin
Flag of CNCASC (CN / PRC)
ManufacturerUnknown
MissionSpacecraft
Bus & MotorUnknown
MassUnknown
Launch date (UTC)
1999-05-10 (26 years ago)
Launch vehicleUnknown
Launch site
Taiyaun Space Center, China (TSC)
Object type
Payload
Rocket body
Debris
Shape & HBRUnknown
Radar Cross SectionSmall (<0.1 m²)

Expand to show TLE details & history

TLE from 1 day ago
0 FENGYUN 1C DEB
1 29736U 99025AA  24355.18066361  .00000418  00000-0  99500-3 0  9991
2 29736  99.4375 236.6820 0729586 245.0304 276.7573 12.56833789820513
Epoch: 2024-12-20T04:20Z
Definitive object data (Epoch: 2024-12-20T04:20:09.335Z)
Latitude26.21935°
Longitude-92.93446°
Altitude1,413.35 km
Speed7.168 km/s
True Right ascension04h 05m 25s
True Declination26° 05' 41"
Sunlit
Object was in full shadow at TLE epoch
Visualization TLE readout
Latitude80.1971°
Longitude10.28157°
Altitude1,957.277 km
Speed6.694 km/s
Apparent Right ascension02h 13m 29s
Apparent Declination46° 59' 56"
Sunlit
Object is in daylight
Visualization observer readout
Local Sidereal Time13:23:00
Azimuth351.421° N
Elevation-2.36°
Doppler factor1
Orbital elements
Apogee altitude2,003.356 km
Perigee altitude863.513 km
Semi-major axis7,811.571 km
Eccentricity0.0729586
Inclination99.4375°
RAAN236.682°
Arg. of periapsis245.0304°
True anomaly268.39474°
Mean anomaly276.7573°
Eccentric anomaly272.58132°
Mean motion3.14366 °/min
BSTAR0.000995
Orbital period114.52 mins
Loading maneuver chart data...
Loading historical data...
Loading historical data...
Loading historical data...
Loading historical data...
Loading historical data...
Loading historical data...
Loading historical data...

FENGYUN 1C DEB Visibility forecast

Observer location: undefined°, undefined

Span
Click to sort rows by Start time (UTC) header in descending order
Start Az.
Max El. time (UTC)
Max El. Az.
Max El.
End time (UTC)
End Az.
21 mins2024-12-21 15:48:53.468Z153.342° SSE2024-12-21 15:58:53.468Z69.498° E44.091°2024-12-21 16:09:53.468Z348.783° N
16 mins2024-12-21 17:44:53.468Z217.914° SW2024-12-21 17:51:53.468Z266.87° W26.996°2024-12-21 18:00:53.468Z325.226° NNW
13 mins2024-12-22 03:54:53.468Z34.904° NE2024-12-22 04:01:53.468Z89.885° E27.246°2024-12-22 04:07:53.468Z145.998° SSE
15 mins2024-12-22 05:46:53.468Z6.656° NNE2024-12-22 05:54:53.468Z302.677° NW40.528°2024-12-22 06:01:53.468Z218.395° SW
6 mins2024-12-22 07:42:53.468Z333.988° NNW2024-12-22 07:45:53.468Z313.928° NW14.114°2024-12-22 07:48:53.468Z293.015° NW
|